DAL1745 KMSP-KLAS

Flight info

Callsign DAL1745
Flight time 2h 46m
Altitude 40000
Route SCHEP1 RXANN TEYOU LLUKY BFF EKR J100 SAKES GGAPP CHOWW4
Aircraft A333/H-SDE3GHIJ2J3J5M1RVWXY/LB2D1

Departure

Time 2026-05-01 08:36
Airport Minneapolis–Saint Paul International Airport / Wold–Chamberlain Field (KMSP)

Arrival

Time 2026-05-01 11:22
Airport Harry Reid International Airport (KLAS)
Time Latitude Longitude Altitude Speed Heading
2026-05-01 08:13 44.88090 -93.21135 829 ft 0 kts 37°
2026-05-01 08:27 44.88084 -93.21140 825 ft 4 kts 37°
2026-05-01 08:27 44.88062 -93.21164 826 ft 4 kts 37°
2026-05-01 08:28 44.88043 -93.21184 825 ft 1 kts 37°
2026-05-01 08:28 44.88024 -93.21205 822 ft 4 kts 49°
2026-05-01 08:28 44.88013 -93.21236 821 ft 4 kts 88°
2026-05-01 08:28 44.88013 -93.21269 827 ft 4 kts 90°
2026-05-01 08:29 44.88013 -93.21280 826 ft 0 kts 90°
2026-05-01 08:31 44.88013 -93.21279 826 ft 1 kts 90°
2026-05-01 08:31 44.88013 -93.21267 827 ft 2 kts 90°
2026-05-01 08:31 44.88012 -93.21236 821 ft 4 kts 93°
2026-05-01 08:32 44.87983 -93.21177 824 ft 11 kts 138°
2026-05-01 08:32 44.87917 -93.21095 829 ft 13 kts 137°
2026-05-01 08:32 44.87855 -93.20984 830 ft 15 kts 123°
2026-05-01 08:32 44.87799 -93.20855 824 ft 16 kts 120°
2026-05-01 08:33 44.87737 -93.20709 830 ft 19 kts 121°
2026-05-01 08:33 44.87665 -93.20545 827 ft 20 kts 122°
2026-05-01 08:33 44.87592 -93.20375 825 ft 20 kts 121°
2026-05-01 08:33 44.87526 -93.20221 825 ft 17 kts 121°
2026-05-01 08:34 44.87466 -93.20089 830 ft 10 kts 135°
2026-05-01 08:34 44.87413 -93.20080 824 ft 8 kts 201°
2026-05-01 08:34 44.87369 -93.20143 828 ft 9 kts 264°
2026-05-01 08:34 44.87401 -93.20232 826 ft 12 kts 301°
2026-05-01 08:35 44.87522 -93.20508 826 ft 63 kts 301°
2026-05-01 08:35 44.87855 -93.21277 827 ft 119 kts 301°
2026-05-01 08:35 44.88367 -93.22471 833 ft 163 kts 302°
2026-05-01 08:35 44.88955 -93.23864 1416 ft 162 kts 303°
2026-05-01 08:36 44.89520 -93.25217 2143 ft 164 kts 302°
2026-05-01 08:36 44.90134 -93.26706 2431 ft 188 kts 301°
2026-05-01 08:36 44.90837 -93.28412 2618 ft 216 kts 301°
2026-05-01 08:36 44.91645 -93.30373 2914 ft 243 kts 300°
2026-05-01 08:37 44.92160 -93.32711 3655 ft 253 kts 275°
2026-05-01 08:37 44.91972 -93.35155 4556 ft 257 kts 252°
2026-05-01 08:37 44.91044 -93.37357 5522 ft 261 kts 236°
2026-05-01 08:37 44.89811 -93.39217 6393 ft 266 kts 227°
2026-05-01 08:38 44.88430 -93.40989 7270 ft 270 kts 224°
2026-05-01 08:38 44.86991 -93.42715 8180 ft 274 kts 223°
2026-05-01 08:38 44.85484 -93.44459 9101 ft 278 kts 222°
2026-05-01 08:38 44.83963 -93.46187 10012 ft 283 kts 222°
2026-05-01 08:39 44.82392 -93.47956 10530 ft 300 kts 221°
2026-05-01 08:39 44.80701 -93.49853 10848 ft 321 kts 221°
2026-05-01 08:39 44.78917 -93.51841 11411 ft 332 kts 221°
2026-05-01 08:39 44.77105 -93.53852 12155 ft 338 kts 221°
2026-05-01 08:40 44.73347 -93.58016 13706 ft 346 kts 220°
2026-05-01 08:40 44.71475 -93.60094 14379 ft 350 kts 221°
2026-05-01 08:40 44.69721 -93.62462 15058 ft 351 kts 232°
2026-05-01 08:41 44.68210 -93.65188 15765 ft 353 kts 236°
2026-05-01 08:41 44.66758 -93.67993 16451 ft 356 kts 237°
2026-05-01 08:41 44.65282 -93.70860 17142 ft 359 kts 237°
2026-05-01 08:41 44.63825 -93.73682 17787 ft 363 kts 237°
2026-05-01 08:42 44.62335 -93.76557 18440 ft 366 kts 237°
2026-05-01 08:42 44.60826 -93.79458 18977 ft 370 kts 237°
2026-05-01 08:42 44.59301 -93.82385 19505 ft 373 kts 237°
2026-05-01 08:42 44.57761 -93.85337 20048 ft 377 kts 237°
2026-05-01 08:43 44.56209 -93.88308 20565 ft 380 kts 237°
2026-05-01 08:43 44.54646 -93.91297 21095 ft 383 kts 237°
2026-05-01 08:43 44.53059 -93.94327 21653 ft 385 kts 237°
2026-05-01 08:43 44.51469 -93.97361 22180 ft 388 kts 237°
2026-05-01 08:44 44.49858 -94.00431 22683 ft 392 kts 237°
2026-05-01 08:44 44.48212 -94.03565 23178 ft 395 kts 237°
2026-05-01 08:44 44.46602 -94.06628 23664 ft 398 kts 237°
2026-05-01 08:44 44.44953 -94.09761 24084 ft 402 kts 237°
2026-05-01 08:45 44.43286 -94.12923 24492 ft 404 kts 237°
2026-05-01 08:45 44.41611 -94.16096 24894 ft 407 kts 236°
2026-05-01 08:45 44.39929 -94.19277 25290 ft 409 kts 236°
2026-05-01 08:45 44.38228 -94.22491 25695 ft 411 kts 236°
2026-05-01 08:46 44.36524 -94.25706 26088 ft 414 kts 236°
2026-05-01 08:46 44.34805 -94.28947 26473 ft 416 kts 236°
2026-05-01 08:46 44.33080 -94.32196 26880 ft 417 kts 236°
2026-05-01 08:46 44.31347 -94.35454 27306 ft 418 kts 236°
2026-05-01 08:47 44.29606 -94.38728 27695 ft 421 kts 236°
2026-05-01 08:47 44.27854 -94.42015 28045 ft 423 kts 236°
2026-05-01 08:47 44.26092 -94.45319 28415 ft 426 kts 236°
2026-05-01 08:47 44.24318 -94.48641 28779 ft 428 kts 236°
2026-05-01 08:48 44.22537 -94.51975 29142 ft 430 kts 236°
2026-05-01 08:48 44.20746 -94.55324 29481 ft 432 kts 236°
2026-05-01 08:48 44.18942 -94.58694 29823 ft 434 kts 236°
2026-05-01 08:48 44.17133 -94.62068 30225 ft 435 kts 236°
2026-05-01 08:49 44.15321 -94.65444 30510 ft 437 kts 236°
2026-05-01 08:49 44.13501 -94.68833 30802 ft 439 kts 236°
2026-05-01 08:49 44.11672 -94.72235 31114 ft 439 kts 237°
2026-05-01 08:49 44.09841 -94.75635 31446 ft 440 kts 237°
2026-05-01 08:50 44.07997 -94.79055 31720 ft 442 kts 237°
2026-05-01 08:50 44.06151 -94.82476 31964 ft 444 kts 237°
2026-05-01 08:50 44.04297 -94.85909 32207 ft 446 kts 237°
2026-05-01 08:50 44.02430 -94.89358 32480 ft 447 kts 237°
2026-05-01 08:51 44.00554 -94.92821 32853 ft 447 kts 237°
2026-05-01 08:51 43.98704 -94.96279 33232 ft 445 kts 237°
2026-05-01 08:51 43.96887 -94.99747 33588 ft 443 kts 238°
2026-05-01 08:51 43.95087 -95.03216 33955 ft 443 kts 238°
2026-05-01 08:52 43.93297 -95.06676 34267 ft 442 kts 238°
2026-05-01 08:52 43.91506 -95.10136 34502 ft 442 kts 238°
2026-05-01 08:52 43.89710 -95.13593 34809 ft 440 kts 238°
2026-05-01 08:52 43.87916 -95.17037 35080 ft 440 kts 238°
2026-05-01 08:53 43.86122 -95.20473 35321 ft 440 kts 238°
2026-05-01 08:53 43.84327 -95.23905 35555 ft 441 kts 238°
2026-05-01 08:53 43.82527 -95.27339 35778 ft 441 kts 238°
2026-05-01 08:53 43.80723 -95.30776 36001 ft 441 kts 238°
2026-05-01 08:54 43.78916 -95.34215 36229 ft 441 kts 238°
2026-05-01 08:54 43.77111 -95.37647 36413 ft 442 kts 238°
2026-05-01 08:54 43.75298 -95.41089 36639 ft 442 kts 238°
2026-05-01 08:54 43.73489 -95.44520 36851 ft 442 kts 237°
2026-05-01 08:55 43.71676 -95.47956 37073 ft 442 kts 237°
2026-05-01 08:55 43.69864 -95.51383 37289 ft 442 kts 237°
2026-05-01 08:55 43.68077 -95.54760 37551 ft 440 kts 238°
2026-05-01 08:55 43.66248 -95.58210 37817 ft 439 kts 238°
2026-05-01 08:56 43.64468 -95.61566 38029 ft 439 kts 238°
2026-05-01 08:56 43.62644 -95.65003 38240 ft 439 kts 238°
2026-05-01 08:56 43.60833 -95.68410 38459 ft 439 kts 237°
2026-05-01 08:56 43.59049 -95.71764 38633 ft 439 kts 237°
2026-05-01 08:57 43.57220 -95.75197 38804 ft 440 kts 237°
2026-05-01 08:57 43.55429 -95.78557 38942 ft 440 kts 237°
2026-05-01 08:57 43.53617 -95.81950 39092 ft 440 kts 237°
2026-05-01 08:57 43.51799 -95.85352 39231 ft 440 kts 237°
2026-05-01 08:58 43.49962 -95.88782 39378 ft 440 kts 237°
2026-05-01 08:58 43.48143 -95.92177 39514 ft 440 kts 237°
2026-05-01 08:58 43.46353 -95.95514 39685 ft 438 kts 237°
2026-05-01 08:58 43.44543 -95.98881 39904 ft 437 kts 237°
2026-05-01 08:59 43.42738 -96.02237 40044 ft 436 kts 237°
2026-05-01 08:59 43.40929 -96.05600 40103 ft 439 kts 237°
2026-05-01 08:59 43.37278 -96.12375 40120 ft 443 kts 237°
2026-05-01 09:00 43.33610 -96.19162 40131 ft 442 kts 237°
2026-05-01 09:00 43.29997 -96.25972 40136 ft 439 kts 241°
2026-05-01 09:01 43.27200 -96.33351 40138 ft 436 kts 248°
2026-05-01 09:01 43.24691 -96.40923 40120 ft 435 kts 249°
2026-05-01 09:02 43.22245 -96.48490 40128 ft 434 kts 249°
2026-05-01 09:02 43.19785 -96.56049 40141 ft 434 kts 249°
2026-05-01 09:03 43.17310 -96.63589 40140 ft 434 kts 249°
2026-05-01 09:03 43.14827 -96.71114 40154 ft 434 kts 249°
2026-05-01 09:04 43.12754 -96.77377 40154 ft 434 kts 249°
2026-05-01 09:04 43.10257 -96.84902 40148 ft 434 kts 249°
2026-05-01 09:05 43.07757 -96.92419 40152 ft 435 kts 249°
2026-05-01 09:05 43.05248 -96.99941 40178 ft 435 kts 249°
2026-05-01 09:06 43.02733 -97.07459 40155 ft 435 kts 249°
2026-05-01 09:06 43.00215 -97.14967 40151 ft 435 kts 249°
2026-05-01 09:07 42.97691 -97.22470 40154 ft 434 kts 249°
2026-05-01 09:07 42.95168 -97.29951 40146 ft 434 kts 249°
2026-05-01 09:08 42.92642 -97.37420 40146 ft 434 kts 249°
2026-05-01 09:08 42.90112 -97.44882 40147 ft 434 kts 248°
2026-05-01 09:09 42.87574 -97.52346 40194 ft 434 kts 248°
2026-05-01 09:09 42.85029 -97.59808 40188 ft 434 kts 248°
2026-05-01 09:10 42.82497 -97.67214 40199 ft 434 kts 248°
2026-05-01 09:10 42.79944 -97.74663 40200 ft 434 kts 248°
2026-05-01 09:11 42.77384 -97.82109 40198 ft 434 kts 248°
2026-05-01 09:11 42.74819 -97.89551 40193 ft 434 kts 248°
2026-05-01 09:12 42.72249 -97.96983 40187 ft 434 kts 248°
2026-05-01 09:12 42.69681 -98.04394 40197 ft 433 kts 248°
2026-05-01 09:13 42.67111 -98.11789 40194 ft 433 kts 248°
2026-05-01 09:13 42.64536 -98.19182 40194 ft 433 kts 248°
2026-05-01 09:14 42.61954 -98.26571 40197 ft 433 kts 248°
2026-05-01 09:14 42.59366 -98.33961 40197 ft 433 kts 248°
2026-05-01 09:15 42.56773 -98.41343 40197 ft 433 kts 248°
2026-05-01 09:15 42.54176 -98.48716 40181 ft 433 kts 248°
2026-05-01 09:16 42.51574 -98.56087 40175 ft 433 kts 248°
2026-05-01 09:17 42.48570 -98.67500 40176 ft 427 kts 262°
2026-05-01 09:17 42.47238 -98.79419 40174 ft 427 kts 264°
2026-05-01 09:18 42.46063 -98.91379 40183 ft 427 kts 264°
2026-05-01 09:19 42.44839 -99.03312 40195 ft 427 kts 264°
2026-05-01 09:20 42.43585 -99.15255 40212 ft 427 kts 264°
2026-05-01 09:21 42.41889 -99.31259 40212 ft 436 kts 264°
2026-05-01 09:21 42.40571 -99.43539 40214 ft 441 kts 264°
2026-05-01 09:22 42.38788 -99.59933 40207 ft 441 kts 264°
2026-05-01 09:23 42.37435 -99.72241 40204 ft 441 kts 264°
2026-05-01 09:24 42.36076 -99.84476 40190 ft 441 kts 263°
2026-05-01 09:25 42.34236 -100.00860 40205 ft 441 kts 263°
2026-05-01 09:26 42.32839 -100.13146 40204 ft 441 kts 263°
2026-05-01 09:26 42.31425 -100.25467 40207 ft 441 kts 263°
2026-05-01 09:27 42.30009 -100.37686 40214 ft 441 kts 263°
2026-05-01 09:28 42.29054 -100.45858 40212 ft 441 kts 263°
2026-05-01 09:28 42.28093 -100.54029 40211 ft 440 kts 263°
2026-05-01 09:29 42.26642 -100.66274 40209 ft 440 kts 263°
2026-05-01 09:30 42.25172 -100.78563 40217 ft 440 kts 263°
2026-05-01 09:30 42.23700 -100.90755 40208 ft 441 kts 263°
2026-05-01 09:31 42.22708 -100.98911 40205 ft 441 kts 263°
2026-05-01 09:32 42.21208 -101.11144 40208 ft 441 kts 263°
2026-05-01 09:32 42.19695 -101.23373 40207 ft 441 kts 263°
2026-05-01 09:33 42.18679 -101.31526 40203 ft 441 kts 263°
2026-05-01 09:34 42.17145 -101.43747 40209 ft 441 kts 263°
2026-05-01 09:34 42.15598 -101.55964 40209 ft 441 kts 263°
2026-05-01 09:35 42.14036 -101.68184 40205 ft 441 kts 263°
2026-05-01 09:36 42.12989 -101.76313 40207 ft 441 kts 263°
2026-05-01 09:36 42.11935 -101.84447 40219 ft 441 kts 262°
2026-05-01 09:37 42.10876 -101.92576 40216 ft 441 kts 262°
2026-05-01 09:37 42.09278 -102.04775 40187 ft 441 kts 262°
2026-05-01 09:38 42.07671 -102.16923 40207 ft 441 kts 262°
2026-05-01 09:39 42.06047 -102.29092 40202 ft 441 kts 262°
2026-05-01 09:39 42.04955 -102.37220 40197 ft 441 kts 262°
2026-05-01 09:40 42.03309 -102.49389 40195 ft 441 kts 262°
2026-05-01 09:41 42.02201 -102.57518 40185 ft 441 kts 262°
2026-05-01 09:41 42.00530 -102.69690 40174 ft 441 kts 262°
2026-05-01 09:42 41.99410 -102.77797 40156 ft 441 kts 262°
2026-05-01 09:43 41.97150 -102.94029 40184 ft 442 kts 262°
2026-05-01 09:43 41.96011 -103.02141 40185 ft 442 kts 262°
2026-05-01 09:44 41.94290 -103.14314 40185 ft 442 kts 262°
2026-05-01 09:45 41.93135 -103.22424 40198 ft 442 kts 262°
2026-05-01 09:45 41.91400 -103.34530 40179 ft 442 kts 261°
2026-05-01 09:46 41.90224 -103.42680 40174 ft 442 kts 261°
2026-05-01 09:46 41.88410 -103.50583 40168 ft 447 kts 249°
2026-05-01 09:47 41.85711 -103.58117 40174 ft 448 kts 246°
2026-05-01 09:47 41.82847 -103.65545 40174 ft 449 kts 246°
2026-05-01 09:48 41.79957 -103.72973 40177 ft 449 kts 246°
2026-05-01 09:48 41.77086 -103.80391 40179 ft 448 kts 246°
2026-05-01 09:49 41.74228 -103.87792 40182 ft 447 kts 246°
2026-05-01 09:49 41.71849 -103.93947 40196 ft 447 kts 246°
2026-05-01 09:50 41.68986 -104.01336 40200 ft 447 kts 246°
2026-05-01 09:50 41.66117 -104.08718 40195 ft 447 kts 246°
2026-05-01 09:51 41.63241 -104.16101 40191 ft 447 kts 246°
2026-05-01 09:51 41.60362 -104.23474 40185 ft 448 kts 245°
2026-05-01 09:52 41.57497 -104.30796 40193 ft 448 kts 245°
2026-05-01 09:52 41.54588 -104.38210 40188 ft 448 kts 245°
2026-05-01 09:53 41.51710 -104.45528 40183 ft 448 kts 245°
2026-05-01 09:53 41.48807 -104.52889 40181 ft 448 kts 245°
2026-05-01 09:54 41.45903 -104.60235 40183 ft 447 kts 245°
2026-05-01 09:54 41.42999 -104.67556 40186 ft 446 kts 245°
2026-05-01 09:55 41.40100 -104.74852 40194 ft 446 kts 245°
2026-05-01 09:55 41.37191 -104.82158 40195 ft 446 kts 245°
2026-05-01 09:56 41.34281 -104.89447 40197 ft 446 kts 245°
2026-05-01 09:56 41.31365 -104.96734 40197 ft 446 kts 245°
2026-05-01 09:57 41.28444 -105.04013 40203 ft 447 kts 245°
2026-05-01 09:57 41.25510 -105.11303 40204 ft 447 kts 245°
2026-05-01 09:58 41.22578 -105.18573 40203 ft 447 kts 245°
2026-05-01 09:58 41.19636 -105.25849 40209 ft 447 kts 245°
2026-05-01 09:59 41.16690 -105.33115 40210 ft 447 kts 245°
2026-05-01 09:59 41.13746 -105.40360 40209 ft 445 kts 244°
2026-05-01 10:00 41.10808 -105.47573 40211 ft 444 kts 245°
2026-05-01 10:00 41.07869 -105.54773 40211 ft 444 kts 244°
2026-05-01 10:01 41.04925 -105.61966 40210 ft 444 kts 244°
2026-05-01 10:01 41.01978 -105.69147 40215 ft 444 kts 244°
2026-05-01 10:02 40.99020 -105.76342 40214 ft 445 kts 244°
2026-05-01 10:02 40.96076 -105.83482 40221 ft 445 kts 244°
2026-05-01 10:03 40.93111 -105.90654 40222 ft 445 kts 244°
2026-05-01 10:03 40.90139 -105.97827 40229 ft 445 kts 244°
2026-05-01 10:04 40.87161 -106.04996 40230 ft 445 kts 244°
2026-05-01 10:04 40.84180 -106.12156 40235 ft 445 kts 244°
2026-05-01 10:05 40.81195 -106.19307 40239 ft 444 kts 244°
2026-05-01 10:05 40.78216 -106.26430 40248 ft 443 kts 244°
2026-05-01 10:06 40.75232 -106.33549 40247 ft 444 kts 244°
2026-05-01 10:06 40.72240 -106.40670 40247 ft 444 kts 244°
2026-05-01 10:07 40.69245 -106.47778 40253 ft 444 kts 244°
2026-05-01 10:07 40.66239 -106.54896 40243 ft 444 kts 244°
2026-05-01 10:08 40.61748 -106.65498 40212 ft 444 kts 244°
2026-05-01 10:09 40.58736 -106.72591 40209 ft 444 kts 244°
2026-05-01 10:09 40.55721 -106.79678 40209 ft 445 kts 244°
2026-05-01 10:10 40.52697 -106.86768 40191 ft 445 kts 244°
2026-05-01 10:10 40.48151 -106.97392 40225 ft 443 kts 244°
2026-05-01 10:11 40.45123 -107.04451 40220 ft 443 kts 244°
2026-05-01 10:11 40.42091 -107.11500 40221 ft 444 kts 244°
2026-05-01 10:12 40.39055 -107.18543 40225 ft 444 kts 244°
2026-05-01 10:13 40.34486 -107.29112 40220 ft 444 kts 244°
2026-05-01 10:13 40.31434 -107.36151 40211 ft 444 kts 244°
2026-05-01 10:14 40.26850 -107.46692 40208 ft 444 kts 243°
2026-05-01 10:14 40.23789 -107.53710 40200 ft 444 kts 243°
2026-05-01 10:15 40.20747 -107.60671 40192 ft 444 kts 243°
2026-05-01 10:15 40.17677 -107.67681 40181 ft 443 kts 243°
2026-05-01 10:16 40.14613 -107.74660 40164 ft 443 kts 243°
2026-05-01 10:17 40.10007 -107.85119 40164 ft 443 kts 243°
2026-05-01 10:17 40.05306 -107.95507 40194 ft 444 kts 240°
2026-05-01 10:18 40.00164 -108.05581 40186 ft 445 kts 239°
2026-05-01 10:19 39.96715 -108.12262 40176 ft 445 kts 240°
2026-05-01 10:19 39.93276 -108.18971 40167 ft 445 kts 240°
2026-05-01 10:20 39.88131 -108.29024 40151 ft 445 kts 240°
2026-05-01 10:20 39.84703 -108.35706 40138 ft 443 kts 239°
2026-05-01 10:21 39.79582 -108.45658 40136 ft 442 kts 239°
2026-05-01 10:22 39.74444 -108.55614 40121 ft 442 kts 239°
2026-05-01 10:23 39.69297 -108.65550 40109 ft 442 kts 239°
2026-05-01 10:23 39.64139 -108.75480 40076 ft 442 kts 239°
2026-05-01 10:24 39.57268 -108.88658 40073 ft 443 kts 239°
2026-05-01 10:25 39.50353 -109.01865 40071 ft 442 kts 239°
2026-05-01 10:26 39.46901 -109.08439 40063 ft 442 kts 239°
2026-05-01 10:27 39.39957 -109.21623 40069 ft 444 kts 239°
2026-05-01 10:28 39.34722 -109.31521 40071 ft 444 kts 239°
2026-05-01 10:28 39.29488 -109.41395 40068 ft 444 kts 239°
2026-05-01 10:29 39.24239 -109.51265 40054 ft 445 kts 239°
2026-05-01 10:30 39.17221 -109.64419 40064 ft 445 kts 239°
2026-05-01 10:31 39.10180 -109.77551 40065 ft 445 kts 239°
2026-05-01 10:32 39.04887 -109.87390 40065 ft 446 kts 239°
2026-05-01 10:33 38.97821 -110.00483 40058 ft 446 kts 239°
2026-05-01 10:34 38.92533 -110.10246 40051 ft 446 kts 238°
2026-05-01 10:34 38.88987 -110.16773 40043 ft 446 kts 238°
2026-05-01 10:35 38.83596 -110.26569 40038 ft 447 kts 235°
2026-05-01 10:35 38.79603 -110.32621 40037 ft 448 kts 233°
2026-05-01 10:36 38.73435 -110.41716 40037 ft 449 kts 233°
2026-05-01 10:37 38.69333 -110.47739 40041 ft 449 kts 233°
2026-05-01 10:37 38.63163 -110.56773 40042 ft 450 kts 233°
2026-05-01 10:38 38.59740 -110.61773 40034 ft 449 kts 233°
2026-05-01 10:38 38.55632 -110.67763 40135 ft 447 kts 233°
2026-05-01 10:39 38.51534 -110.73730 40150 ft 447 kts 233°
2026-05-01 10:39 38.47431 -110.79690 40155 ft 447 kts 233°
2026-05-01 10:40 38.43320 -110.85653 40138 ft 448 kts 232°
2026-05-01 10:40 38.39203 -110.91614 40119 ft 448 kts 232°
2026-05-01 10:41 38.35076 -110.97575 40094 ft 448 kts 232°
2026-05-01 10:42 38.28891 -111.06489 40060 ft 447 kts 232°
2026-05-01 10:42 38.24775 -111.12407 40036 ft 446 kts 232°
2026-05-01 10:43 38.20655 -111.18320 40043 ft 447 kts 232°
2026-05-01 10:43 38.16555 -111.24195 40045 ft 448 kts 232°
2026-05-01 10:44 38.12424 -111.30103 40044 ft 448 kts 232°
2026-05-01 10:44 38.08276 -111.36023 40055 ft 447 kts 232°
2026-05-01 10:44 38.06210 -111.38967 39856 ft 446 kts 232°
2026-05-01 10:45 38.04154 -111.41894 39630 ft 444 kts 232°
2026-05-01 10:45 38.02095 -111.44824 39397 ft 444 kts 232°
2026-05-01 10:45 38.00046 -111.47738 39165 ft 443 kts 232°
2026-05-01 10:45 37.97994 -111.50652 38945 ft 441 kts 232°
2026-05-01 10:46 37.95950 -111.53551 38714 ft 441 kts 232°
2026-05-01 10:46 37.93913 -111.56440 38446 ft 440 kts 232°
2026-05-01 10:46 37.91870 -111.59335 38169 ft 441 kts 232°
2026-05-01 10:46 37.89826 -111.62228 37890 ft 441 kts 232°
2026-05-01 10:47 37.87779 -111.65124 37608 ft 441 kts 232°
2026-05-01 10:47 37.85731 -111.68016 37338 ft 441 kts 232°
2026-05-01 10:47 37.83679 -111.70913 37075 ft 442 kts 232°
2026-05-01 10:47 37.81626 -111.73807 36819 ft 442 kts 232°
2026-05-01 10:48 37.79579 -111.76691 36578 ft 442 kts 232°
2026-05-01 10:48 37.77520 -111.79589 36320 ft 442 kts 232°
2026-05-01 10:48 37.75469 -111.82474 36093 ft 445 kts 232°
2026-05-01 10:48 37.73386 -111.85401 35624 ft 448 kts 232°
2026-05-01 10:49 37.71299 -111.88330 34926 ft 449 kts 231°
2026-05-01 10:49 37.69207 -111.91262 34461 ft 446 kts 231°
2026-05-01 10:49 37.67144 -111.94151 33887 ft 444 kts 231°
2026-05-01 10:49 37.65079 -111.97040 33165 ft 443 kts 231°
2026-05-01 10:50 37.63009 -111.99937 32508 ft 445 kts 231°
2026-05-01 10:50 37.60929 -112.02846 32199 ft 449 kts 231°
2026-05-01 10:50 37.58825 -112.05785 32141 ft 453 kts 231°
2026-05-01 10:51 37.54597 -112.11690 32133 ft 453 kts 232°
2026-05-01 10:51 37.50906 -112.18074 31809 ft 451 kts 240°
2026-05-01 10:51 37.49191 -112.21397 31537 ft 452 kts 240°
2026-05-01 10:52 37.47478 -112.24725 31342 ft 454 kts 240°
2026-05-01 10:52 37.45761 -112.28054 31135 ft 454 kts 240°
2026-05-01 10:52 37.44038 -112.31386 30928 ft 454 kts 240°
2026-05-01 10:52 37.42317 -112.34705 30726 ft 453 kts 240°
2026-05-01 10:53 37.40618 -112.37976 30518 ft 452 kts 240°
2026-05-01 10:53 37.38901 -112.41278 30326 ft 450 kts 240°
2026-05-01 10:53 37.37190 -112.44565 30106 ft 449 kts 240°
2026-05-01 10:53 37.35478 -112.47851 29919 ft 448 kts 240°
2026-05-01 10:54 37.33774 -112.51120 29722 ft 447 kts 240°
2026-05-01 10:54 37.32067 -112.54388 29541 ft 446 kts 240°
2026-05-01 10:54 37.30365 -112.57645 29350 ft 445 kts 240°
2026-05-01 10:54 37.28670 -112.60886 29160 ft 444 kts 240°
2026-05-01 10:55 37.26980 -112.64114 28973 ft 442 kts 240°
2026-05-01 10:55 37.25290 -112.67340 28786 ft 441 kts 240°
2026-05-01 10:55 37.23606 -112.70550 28593 ft 440 kts 240°
2026-05-01 10:55 37.21926 -112.73749 28413 ft 439 kts 240°
2026-05-01 10:56 37.20246 -112.76943 28248 ft 438 kts 240°
2026-05-01 10:56 37.18573 -112.80125 28075 ft 437 kts 240°
2026-05-01 10:56 37.16900 -112.83302 27929 ft 436 kts 240°
2026-05-01 10:56 37.15225 -112.86478 27732 ft 435 kts 240°
2026-05-01 10:57 37.13558 -112.89635 27579 ft 434 kts 240°
2026-05-01 10:57 37.11892 -112.92789 27420 ft 433 kts 240°
2026-05-01 10:57 37.10232 -112.95929 27251 ft 432 kts 240°
2026-05-01 10:57 37.08576 -112.99059 27078 ft 431 kts 240°
2026-05-01 10:58 37.06924 -113.02178 26927 ft 430 kts 240°
2026-05-01 10:58 37.05274 -113.05290 26726 ft 428 kts 240°
2026-05-01 10:58 37.03627 -113.08395 26560 ft 427 kts 240°
2026-05-01 10:58 37.01984 -113.11488 26362 ft 427 kts 240°
2026-05-01 10:59 37.00339 -113.14582 26199 ft 427 kts 240°
2026-05-01 10:59 36.98695 -113.17671 26000 ft 426 kts 240°
2026-05-01 10:59 36.97053 -113.20755 25821 ft 425 kts 240°
2026-05-01 10:59 36.95412 -113.23832 25608 ft 424 kts 240°
2026-05-01 11:00 36.93780 -113.26891 25419 ft 423 kts 240°
2026-05-01 11:00 36.92146 -113.29950 25225 ft 422 kts 240°
2026-05-01 11:00 36.90517 -113.32997 25030 ft 421 kts 240°
2026-05-01 11:00 36.88894 -113.36030 24839 ft 420 kts 240°
2026-05-01 11:01 36.87273 -113.39057 24631 ft 419 kts 240°
2026-05-01 11:01 36.85657 -113.42072 24449 ft 418 kts 240°
2026-05-01 11:01 36.84041 -113.45086 24279 ft 417 kts 240°
2026-05-01 11:01 36.82427 -113.48094 24125 ft 416 kts 240°
2026-05-01 11:02 36.80817 -113.51091 23964 ft 416 kts 240°
2026-05-01 11:02 36.79214 -113.54081 23398 ft 415 kts 240°
2026-05-01 11:02 36.77615 -113.57062 22784 ft 410 kts 240°
2026-05-01 11:02 36.76036 -113.60003 22291 ft 407 kts 240°
2026-05-01 11:03 36.74460 -113.62939 21815 ft 406 kts 240°
2026-05-01 11:03 36.72894 -113.65853 21315 ft 404 kts 240°
2026-05-01 11:03 36.71333 -113.68753 20820 ft 402 kts 240°
2026-05-01 11:03 36.69781 -113.71635 20336 ft 400 kts 239°
2026-05-01 11:04 36.68235 -113.74504 19846 ft 398 kts 239°
2026-05-01 11:04 36.66717 -113.77319 19377 ft 397 kts 239°
2026-05-01 11:04 36.65178 -113.80171 18886 ft 396 kts 239°
2026-05-01 11:04 36.63644 -113.83008 18413 ft 394 kts 239°
2026-05-01 11:05 36.62123 -113.85820 17891 ft 392 kts 238°
2026-05-01 11:05 36.60597 -113.88640 17396 ft 390 kts 238°
2026-05-01 11:05 36.59078 -113.91424 16938 ft 388 kts 237°
2026-05-01 11:05 36.57471 -113.94116 16603 ft 387 kts 234°
2026-05-01 11:06 36.55833 -113.96762 16328 ft 386 kts 234°
2026-05-01 11:06 36.54194 -113.99397 16018 ft 385 kts 234°
2026-05-01 11:06 36.52556 -114.02031 15695 ft 384 kts 234°
2026-05-01 11:07 36.49301 -114.07265 15109 ft 382 kts 234°
2026-05-01 11:07 36.47677 -114.09873 14801 ft 382 kts 234°
2026-05-01 11:07 36.46054 -114.12482 14514 ft 381 kts 234°
2026-05-01 11:07 36.44463 -114.15036 14316 ft 367 kts 234°
2026-05-01 11:08 36.42925 -114.17502 14068 ft 356 kts 234°
2026-05-01 11:08 36.41429 -114.19901 13779 ft 347 kts 234°
2026-05-01 11:08 36.38534 -114.24511 13226 ft 328 kts 233°
2026-05-01 11:09 36.37155 -114.26674 12874 ft 313 kts 233°
2026-05-01 11:09 36.35810 -114.28786 12589 ft 312 kts 234°
2026-05-01 11:09 36.34467 -114.30896 12338 ft 311 kts 233°
2026-05-01 11:10 36.31788 -114.35097 11852 ft 309 kts 234°
2026-05-01 11:10 36.30459 -114.37178 11612 ft 309 kts 234°
2026-05-01 11:10 36.29142 -114.39240 11359 ft 308 kts 234°
2026-05-01 11:10 36.27797 -114.41345 11123 ft 307 kts 234°
2026-05-01 11:11 36.26470 -114.43419 10901 ft 306 kts 234°
2026-05-01 11:11 36.25145 -114.45477 10646 ft 305 kts 233°
2026-05-01 11:11 36.23815 -114.47524 10402 ft 305 kts 233°
2026-05-01 11:11 36.22483 -114.49567 10169 ft 304 kts 233°
2026-05-01 11:12 36.21175 -114.51572 9927 ft 303 kts 233°
2026-05-01 11:12 36.19853 -114.53597 9706 ft 300 kts 234°
2026-05-01 11:12 36.18565 -114.55567 9575 ft 289 kts 233°
2026-05-01 11:12 36.17323 -114.57468 9415 ft 279 kts 233°
2026-05-01 11:13 36.16125 -114.59300 9298 ft 269 kts 234°
2026-05-01 11:13 36.14969 -114.61069 9209 ft 260 kts 234°
2026-05-01 11:13 36.13842 -114.62790 9013 ft 255 kts 234°
2026-05-01 11:13 36.12729 -114.64494 8770 ft 254 kts 234°
2026-05-01 11:14 36.11616 -114.66194 8477 ft 255 kts 233°
2026-05-01 11:14 36.10506 -114.67888 8284 ft 253 kts 233°
2026-05-01 11:14 36.09397 -114.69578 8142 ft 253 kts 233°
2026-05-01 11:14 36.08291 -114.71276 8005 ft 252 kts 236°
2026-05-01 11:15 36.07470 -114.73161 7794 ft 247 kts 259°
2026-05-01 11:15 36.07284 -114.75226 7632 ft 236 kts 272°
2026-05-01 11:15 36.07290 -114.77189 7583 ft 220 kts 276°
2026-05-01 11:15 36.07350 -114.79028 7404 ft 210 kts 277°
2026-05-01 11:16 36.07378 -114.80822 7184 ft 207 kts 275°
2026-05-01 11:16 36.07366 -114.82601 6878 ft 207 kts 274°
2026-05-01 11:16 36.07365 -114.84382 6567 ft 208 kts 275°
2026-05-01 11:16 36.07367 -114.86174 6269 ft 209 kts 275°
2026-05-01 11:17 36.07366 -114.87968 5975 ft 208 kts 275°
2026-05-01 11:17 36.07365 -114.89746 5706 ft 205 kts 276°
2026-05-01 11:17 36.07366 -114.91490 5452 ft 201 kts 276°
2026-05-01 11:17 36.07366 -114.93211 5184 ft 200 kts 275°
2026-05-01 11:18 36.07365 -114.94908 4924 ft 194 kts 276°
2026-05-01 11:18 36.07365 -114.96556 4716 ft 191 kts 276°
2026-05-01 11:18 36.07366 -114.98194 4468 ft 191 kts 276°
2026-05-01 11:18 36.07366 -114.99824 4217 ft 188 kts 275°
2026-05-01 11:19 36.07364 -115.01375 3986 ft 172 kts 275°
2026-05-01 11:19 36.07364 -115.02794 3764 ft 158 kts 275°
2026-05-01 11:19 36.07365 -115.04101 3563 ft 147 kts 275°
2026-05-01 11:19 36.07369 -115.05325 3345 ft 140 kts 275°
2026-05-01 11:20 36.07369 -115.06522 3176 ft 138 kts 274°
2026-05-01 11:20 36.07378 -115.07713 3029 ft 139 kts 272°
2026-05-01 11:20 36.07362 -115.08906 2856 ft 139 kts 271°
2026-05-01 11:20 36.07370 -115.10106 2662 ft 141 kts 271°
2026-05-01 11:21 36.07372 -115.11311 2450 ft 141 kts 270°
2026-05-01 11:21 36.07365 -115.12517 2266 ft 141 kts 269°
2026-05-01 11:21 36.07360 -115.13690 2193 ft 127 kts 271°
2026-05-01 11:21 36.07367 -115.14582 2194 ft 75 kts 270°
2026-05-01 11:22 36.07367 -115.15048 2191 ft 46 kts 270°
2026-05-01 11:22 36.07424 -115.15415 2197 ft 39 kts 297°
2026-05-01 11:22 36.07567 -115.15661 2197 ft 31 kts 314°
2026-05-01 11:22 36.07698 -115.15809 2195 ft 22 kts 328°
2026-05-01 11:23 36.07796 -115.15798 2196 ft 11 kts 49°
2026-05-01 11:23 36.07810 -115.15705 2195 ft 11 kts 91°
2026-05-01 11:23 36.07806 -115.15602 2195 ft 13 kts 92°
2026-05-01 11:23 36.07804 -115.15489 2192 ft 14 kts 90°
2026-05-01 11:24 36.07805 -115.15365 2193 ft 15 kts 90°
2026-05-01 11:24 36.07805 -115.15229 2192 ft 17 kts 90°
2026-05-01 11:24 36.07793 -115.14923 2194 ft 19 kts 95°
2026-05-01 11:25 36.07785 -115.14816 2195 ft 19 kts 95°
2026-05-01 11:25 36.07761 -115.14466 2195 ft 21 kts 94°
2026-05-01 11:25 36.07754 -115.14283 2192 ft 22 kts 91°
2026-05-01 11:26 36.07753 -115.14093 2194 ft 22 kts 90°
2026-05-01 11:26 36.07792 -115.13793 2196 ft 13 kts 11°
2026-05-01 11:26 36.07829 -115.13850 2195 ft 8 kts 272°
2026-05-01 11:27 36.07832 -115.13918 2193 ft 8 kts 279°
2026-05-01 11:27 36.07876 -115.13952 2194 ft 8 kts
2026-05-01 11:27 36.07922 -115.13902 2196 ft 9 kts 47°
2026-05-01 11:27 36.07962 -115.13870 2197 ft 4 kts 354°
2026-05-01 11:28 36.07979 -115.13884 2197 ft 3 kts 318°
2026-05-01 11:28 36.08002 -115.13912 2195 ft 6 kts 315°
2026-05-01 11:28 36.08015 -115.13928 2194 ft 1 kts 315°
2026-05-01 11:29 36.08017 -115.13930 2195 ft 0 kts 315°